Weather History for KCWC - March, 2014

Change the Weather History Date:

Wednesday, March 12, 2014

  Actual Average (KSPS) Record (KSPS)
Temperature  
Mean Temperature 50 °F 53 °F  
Max Temperature 59 °F 66 °F 95 °F (1989)
Min Temperature 40 °F 40 °F 10 °F (1948)
Degree Days  
Heating Degree Days 16 12  
Month to date heating degree days 168  
Since 1 July heating degree days 2614  
Cooling Degree Days 0 0  
Month to date cooling degree days 0  
Year to date cooling degree days 3  
Moisture  
Dew Point 23 °F    
Average Humidity 39    
Maximum Humidity 60    
Minimum Humidity 18    
Precipitation  
Precipitation 0.00 in 0.07 in 3.12 in (1999)
Month to date precipitation 0.93  
Year to date precipitation 3.82  
Snow  
Snow 0.00 in 0.00 in - ()
Month to date snowfall 0.3  
Since 1 July snowfall 3.7  
Snow Depth -    
Sea Level Pressure  
Sea Level Pressure 30.25 in    
Wind  
Wind Speed 18 mph (NNW)    
Max Wind Speed 30 mph    
Max Gust Speed 41 mph    
Visibility 10 miles    
Events      
T = Trace of Precipitation, MM = Missing Value Source: NWS Daily Summary

Daily Weather History Graph

Daily Weather History Graph

Search for Another Location

Airport or City:

Trip Planner

Search our weather history database for the weather conditions in past years. The results will help you decide how hot, cold, wet, or windy it might be!

Date:

Astronomy

Mar. 12, 2014 Rise Set
Actual Time 7:48 AM CDT 7:39 PM CDT
Civil Twilight 7:23 AM CDT 8:04 PM CDT
Nautical Twilight 6:54 AM CDT 8:33 PM CDT
Astronomical Twilight 6:25 AM CDT 9:02 PM CDT
Moon 4:19 PM CDT (3/12) 5:12 AM CDT (3/12)
Length of Visible Light 12h 40m
Length of Day
11h 51m
Waxing Gibbous, 85% of the Moon is Illuminated
Mar 12
Waxing Gibbous
Mar 16
Full
Mar 23
Last Quarter
Mar 30
New
Apr 7
First Quarter

Hourly Weather History & Observations

Time (CDT) Temp. Windchill Dew Point Humidity Pressure Visibility Wind Dir Wind Speed Gust Speed Precip Events Conditions
12:15 AM 50.5 °F - 32.0 °F 49% 30.00 in 10.0 mi North 24.2 mph 41.4 mph N/A   Clear
12:35 AM 50.5 °F - 32.4 °F 50% 30.02 in 10.0 mi North 18.4 mph 36.8 mph N/A   Clear
12:55 AM 50.5 °F - 32.5 °F 50% 30.03 in 10.0 mi North 25.3 mph 34.5 mph N/A   Clear
1:15 AM 49.5 °F - 32.0 °F 51% 30.04 in 10.0 mi North 28.8 mph 40.3 mph N/A   Clear
1:35 AM 48.9 °F - 32.0 °F 52% 30.07 in 10.0 mi North 18.4 mph 28.8 mph N/A   Scattered Clouds
1:55 AM 48.2 °F - 31.6 °F 53% 30.08 in 10.0 mi North 29.9 mph 39.1 mph N/A   Scattered Clouds
2:15 AM 47.3 °F - 31.5 °F 54% 30.10 in 10.0 mi North 20.7 mph 33.4 mph N/A   Scattered Clouds
2:35 AM 46.4 °F 38.5 °F 31.1 °F 55% 30.11 in 10.0 mi North 21.9 mph 33.4 mph N/A   Scattered Clouds
2:55 AM 46.0 °F 38.3 °F 31.1 °F 56% 30.12 in 10.0 mi North 20.7 mph 34.5 mph N/A   Scattered Clouds
3:15 AM 45.5 °F 37.3 °F 30.9 °F 57% 30.13 in 10.0 mi North 21.9 mph 31.1 mph N/A   Scattered Clouds
3:35 AM 44.8 °F 35.2 °F 30.9 °F 58% 30.13 in 10.0 mi North 28.8 mph 35.7 mph N/A   Clear
3:55 AM 44.6 °F 36.1 °F 30.9 °F 59% 30.14 in 10.0 mi North 21.9 mph 33.4 mph N/A   Clear
4:15 AM 43.2 °F 34.0 °F 30.2 °F 60% 30.15 in 10.0 mi North 23.0 mph 34.5 mph N/A   Clear
4:35 AM 42.8 °F 33.3 °F 29.8 °F 60% 30.15 in 10.0 mi North 24.2 mph 33.4 mph N/A   Clear
4:55 AM 42.1 °F 32.1 °F 29.1 °F 60% 30.16 in 10.0 mi North 25.3 mph 34.5 mph N/A   Clear
5:15 AM 41.9 °F 31.9 °F 28.4 °F 59% 30.16 in 10.0 mi North 25.3 mph 31.1 mph N/A   Clear
5:35 AM 41.5 °F 32.4 °F 27.7 °F 58% 30.18 in 10.0 mi North 20.7 mph 29.9 mph N/A   Clear
5:55 AM 41.4 °F 32.1 °F 27.3 °F 57% 30.19 in 10.0 mi North 20.7 mph 26.5 mph N/A   Clear
6:15 AM 41.2 °F 32.7 °F 26.2 °F 55% 30.21 in 10.0 mi North 17.3 mph 24.2 mph N/A   Clear
6:35 AM 41.0 °F 32.8 °F 25.5 °F 54% 30.22 in 10.0 mi North 16.1 mph 24.2 mph N/A   Clear
6:55 AM 41.0 °F 32.5 °F 26.4 °F 56% 30.23 in 10.0 mi North 17.3 mph 23.0 mph N/A   Clear
7:15 AM 40.6 °F 34.3 °F 26.8 °F 58% 30.25 in 10.0 mi North 10.4 mph 19.6 mph N/A   Clear
7:35 AM 40.5 °F 32.8 °F 27.1 °F 59% 30.26 in 10.0 mi North 13.8 mph - N/A   Clear
7:55 AM 40.3 °F 31.9 °F 27.1 °F 59% 30.27 in 10.0 mi NNW 16.1 mph 21.9 mph N/A   Clear
8:15 AM 40.6 °F 32.3 °F 27.3 °F 59% 30.29 in 10.0 mi NNW 16.1 mph 21.9 mph N/A   Clear
8:35 AM 41.4 °F 33.6 °F 27.5 °F 58% 30.29 in 10.0 mi North 15.0 mph 20.7 mph N/A   Clear
8:55 AM 42.3 °F 34.8 °F 27.9 °F 57% 30.31 in 10.0 mi NNW 15.0 mph 21.9 mph N/A   Clear
9:15 AM 43.0 °F 36.8 °F 28.0 °F 56% 30.33 in 10.0 mi NNW 11.5 mph 17.3 mph N/A   Clear
9:35 AM 44.1 °F 37.7 °F 28.0 °F 53% 30.34 in 10.0 mi NNW 12.7 mph 18.4 mph N/A   Clear
9:55 AM 45.1 °F 38.4 °F 27.1 °F 49% 30.35 in 10.0 mi NNW 15.0 mph 24.2 mph N/A   Clear
10:15 AM 46.0 °F 39.9 °F 27.0 °F 47% 30.35 in 10.0 mi North 13.8 mph 24.2 mph N/A   Clear
10:35 AM 47.5 °F - 27.3 °F 46% 30.36 in 10.0 mi North 18.4 mph 24.2 mph N/A   Clear
10:55 AM 48.7 °F - 27.0 °F 43% 30.37 in 10.0 mi North 19.6 mph 25.3 mph N/A   Clear
11:15 AM 49.8 °F - 26.4 °F 40% 30.37 in 10.0 mi North 19.6 mph 28.8 mph N/A   Clear
11:35 AM 50.0 °F - 25.9 °F 39% 30.37 in 10.0 mi North 17.3 mph 28.8 mph N/A   Clear
11:55 AM 52.5 °F - 25.5 °F 35% 30.37 in 10.0 mi North 17.3 mph 26.5 mph N/A   Clear
12:15 PM 52.0 °F - 24.8 °F 35% 30.37 in 10.0 mi NNW 19.6 mph 29.9 mph N/A   Clear
12:35 PM 53.6 °F - 24.6 °F 33% 30.37 in 10.0 mi North 17.3 mph 20.7 mph N/A   Clear
1:15 PM 55.4 °F - 23.0 °F 29% 30.35 in 10.0 mi North 17.3 mph 24.2 mph N/A   Clear
1:35 PM 55.0 °F - 21.0 °F 27% 30.35 in 10.0 mi North 15.0 mph 25.3 mph N/A   Clear
1:55 PM 56.3 °F - 20.8 °F 25% 30.34 in 10.0 mi North 17.3 mph 38.0 mph N/A   Clear
2:15 PM 56.1 °F - 21.6 °F 26% 30.33 in 10.0 mi North 9.2 mph 20.7 mph N/A   Clear
2:35 PM 57.4 °F - 19.9 °F 23% 30.32 in 10.0 mi North 13.8 mph 24.2 mph N/A   Clear
2:55 PM 57.6 °F - 18.9 °F 22% 30.31 in 10.0 mi NNW 12.7 mph 24.2 mph N/A   Clear
3:15 PM 58.1 °F - 17.8 °F 21% 30.31 in 10.0 mi North 12.7 mph 24.2 mph N/A   Clear
3:35 PM 58.3 °F - 15.8 °F 19% 30.30 in 10.0 mi North 12.7 mph 21.9 mph N/A   Clear
3:55 PM 58.3 °F - 16.5 °F 20% 30.29 in 10.0 mi North 18.4 mph 25.3 mph N/A   Clear
4:15 PM 58.8 °F - 17.2 °F 20% 30.29 in 10.0 mi NW 11.5 mph 19.6 mph N/A   Clear
4:35 PM 58.6 °F - 17.1 °F 20% 30.28 in 10.0 mi NNW 10.4 mph 23.0 mph N/A   Clear
4:55 PM 59.2 °F - 15.1 °F 18% 30.28 in 10.0 mi North 15.0 mph 19.6 mph N/A   Clear
5:15 PM 59.2 °F - 14.9 °F 18% 30.28 in 10.0 mi NNW 8.1 mph 25.3 mph N/A   Clear
5:35 PM 59.2 °F - 14.7 °F 18% 30.27 in 10.0 mi NNW 12.7 mph 21.9 mph N/A   Clear
5:55 PM 59.0 °F - 14.9 °F 18% 30.27 in 10.0 mi NNW 8.1 mph 17.3 mph N/A   Clear
6:15 PM 58.8 °F - 14.9 °F 18% 30.26 in 10.0 mi NNE 16.1 mph 23.0 mph N/A   Clear
6:35 PM 58.5 °F - 14.4 °F 18% 30.27 in 10.0 mi NNW 11.5 mph 18.4 mph N/A   Clear
6:55 PM 58.1 °F - 14.4 °F 18% 30.27 in 10.0 mi NW 8.1 mph 16.1 mph N/A   Clear
7:15 PM 57.2 °F - 13.6 °F 18% 30.27 in 10.0 mi North 6.9 mph 17.3 mph N/A   Clear
7:35 PM 56.1 °F - 14.0 °F 19% 30.27 in 10.0 mi NNW 8.1 mph - N/A   Clear
7:55 PM 55.2 °F - 14.5 °F 20% 30.28 in 10.0 mi NNW 4.6 mph - N/A   Clear
8:15 PM 54.5 °F - 14.9 °F 21% 30.28 in 10.0 mi North 5.8 mph - N/A   Clear
8:35 PM 53.2 °F - 15.8 °F 23% 30.28 in 10.0 mi North 4.6 mph - N/A   Clear
8:55 PM 52.0 °F - 16.2 °F 24% 30.29 in 10.0 mi North 4.6 mph - N/A   Clear
9:15 PM 50.5 °F - 16.7 °F 26% 30.29 in 10.0 mi NNW 4.6 mph - N/A   Clear
9:35 PM 50.5 °F - 16.2 °F 26% 30.29 in 10.0 mi West 4.6 mph - N/A   Clear
9:55 PM 49.6 °F - 16.7 °F 27% 30.29 in 10.0 mi WSW 3.5 mph - N/A   Clear
10:15 PM 49.1 °F - 16.7 °F 28% 30.29 in 10.0 mi WSW 3.5 mph - N/A   Clear
10:35 PM 47.5 °F - 18.5 °F 32% 30.29 in 10.0 mi WSW 4.6 mph - N/A   Clear
10:55 PM 47.3 °F - 18.7 °F 32% 30.29 in 10.0 mi West 4.6 mph - N/A   Clear
11:15 PM 46.0 °F 44.8 °F 18.9 °F 34% 30.29 in 10.0 mi WSW 3.5 mph - N/A   Clear
11:35 PM 44.8 °F 42.4 °F 20.1 °F 37% 30.29 in 10.0 mi WSW 4.6 mph - N/A   Clear
11:55 PM 44.6 °F 42.2 °F 19.0 °F 36% 30.29 in 10.0 mi WSW 4.6 mph - N/A   Clear